EW2260 Weather Reports


Display with metric or nautical units.
time (UTC)temp
F
wind
direction
speed
MPH
gust
MPH
rain 1hr
in
rain 24hr
in
rain mn
in
humidity
%
barometer
mb
20260506155405 52 311 2.0 5.0 0.00 0.00 0.00 92 1019.8
20260506154805 51 290 3.0 6.0 0.00 0.00 0.00 92 1019.9
20260506154205 51 288 2.0 6.0 0.00 0.00 0.00 92 1019.9
20260506153009 50 307 2.0 5.0 0.00 0.00 0.00 92 1020.0
20260506152405 50 282 3.0 7.0 0.00 0.00 0.00 92 1020.0
20260506151205 50 308 3.0 6.0 0.00 0.00 0.00 92 1020.1
20260506150605 49 324 3.0 6.0 0.00 0.00 0.00 92 1020.1
20260506150009 49 323 2.0 5.0 0.00 0.00 0.00 92 1020.1
20260506145405 49 318 2.0 4.0 0.00 0.00 0.00 92 1020.0
20260506144805 49 334 2.0 4.0 0.00 0.00 0.00 92 1020.1
20260506144205 49 312 2.0 4.0 0.00 0.00 0.00 92 1020.1
20260506143605 48 302 1.0 4.0 0.00 0.00 0.00 92 1020.0
20260506143009 48 302 1.0 3.0 0.00 0.00 0.00 92 1019.9
20260506142405 48 315 1.0 3.0 0.00 0.00 0.00 92 1019.8
20260506141804 48 353 1.0 3.0 0.00 0.00 0.00 92 1019.8
20260506141205 47 65 1.0 2.0 0.00 0.00 0.00 92 1019.8
20260506140605 47 105 0.0 2.0 0.00 0.00 0.00 92 1019.7
20260506140008 46 105 1.0 2.0 0.00 0.00 0.00 92 1019.6
20260506135405 46 104 0.0 1.0 0.00 0.00 0.00 92 1019.6
20260506134805 45 105 1.0 2.0 0.00 0.00 0.00 92 1019.5
20260506134206 45 105 0.0 2.0 0.00 0.00 0.00 92 1019.5
20260506133604 44 104 0.0 1.0 0.00 0.00 0.00 92 1019.3
20260506133008 44 104 0.0 1.0 0.00 0.00 0.00 92 1019.3
20260506132404 43 0 0.0 0.0 0.00 0.00 0.00 92 1019.3
20260506131205 43 0 0.0 0.0 0.00 0.00 0.00 92 1019.2
20260506130604 43 0 0.0 0.0 0.00 0.00 0.00 92 1019.2
20260506130008 43 104 0.0 1.0 0.00 0.00 0.00 92 1019.2
20260506125404 43 105 0.0 2.0 0.00 0.00 0.00 92 1019.1
20260506124804 42 105 0.0 2.0 0.00 0.00 0.00 91 1019.0
20260506124204 42 0 0.0 0.0 0.00 0.00 0.00 91 1018.9
20260506123604 43 105 0.0 1.0 0.00 0.00 0.00 91 1018.9
20260506123008 43 104 0.0 1.0 0.00 0.00 0.00 91 1019.0
20260506122404 43 105 0.0 2.0 0.00 0.00 0.00 91 1018.9
20260506121804 44 105 0.0 2.0 0.00 0.00 0.00 91 1018.8
20260506121206 44 105 1.0 2.0 0.00 0.00 0.00 91 1018.7
20260506120009 44 114 2.0 4.0 0.00 0.00 0.00 91 1018.7
20260506115405 44 108 2.0 4.0 0.00 0.00 0.00 92 1018.6
20260506114804 44 101 1.0 3.0 0.00 0.00 0.00 92 1018.7
20260506114204 44 107 2.0 3.0 0.00 0.00 0.00 91 1018.6
20260506113605 43 115 2.0 3.0 0.00 0.00 0.00 91 1018.6
20260506113009 43 118 1.0 3.0 0.00 0.00 0.00 91 1018.8
20260506112405 43 119 0.0 1.0 0.00 0.00 0.00 91 1018.8
20260506111206 43 119 0.0 2.0 0.00 0.00 0.00 91 1018.7
20260506110605 43 118 1.0 2.0 0.00 0.00 0.00 91 1018.6
20260506110010 43 118 1.0 2.0 0.00 0.00 0.00 91 1018.7
20260506105405 43 119 0.0 1.0 0.00 0.00 0.00 91 1018.6
20260506104805 43 119 0.0 1.0 0.00 0.00 0.00 90 1018.7
20260506104206 44 119 0.0 1.0 0.00 0.00 0.00 90 1018.6
20260506103605 44 0 0.0 0.0 0.00 0.00 0.00 90 1018.5
20260506103009 44 119 0.0 1.0 0.00 0.00 0.00 90 1018.6
20260506102405 44 119 0.0 1.0 0.00 0.00 0.00 90 1018.6
20260506101805 44 119 0.0 1.0 0.00 0.00 0.00 90 1018.6
20260506101206 44 119 0.0 1.0 0.00 0.00 0.00 90 1018.5
20260506100605 45 118 1.0 2.0 0.00 0.00 0.00 90 1018.5
20260506100009 45 119 0.0 2.0 0.00 0.00 0.00 90 1018.4
20260506095405 46 118 1.0 2.0 0.00 0.00 0.00 90 1018.4
20260506094805 46 119 2.0 3.0 0.00 0.00 0.00 90 1018.5
20260506094206 47 109 2.0 3.0 0.00 0.00 0.00 90 1018.4
20260506093604 47 96 2.0 3.0 0.00 0.00 0.00 91 1018.4
20260506093010 47 100 2.0 3.0 0.00 0.00 0.00 91 1018.4
20260506092405 47 112 3.0 4.0 0.00 0.00 0.00 91 1018.2
20260506091805 47 113 3.0 4.0 0.00 0.00 0.00 91 1018.3
20260506090604 46 112 3.0 6.0 0.00 0.00 0.00 90 1018.4
20260506090008 46 111 3.0 4.0 0.00 0.00 0.00 90 1018.4
20260506085404 46 107 3.0 4.0 0.00 0.00 0.00 90 1018.5
20260506084204 47 111 3.0 6.0 0.00 0.00 0.00 90 1018.4
20260506083008 47 103 2.0 4.0 0.00 0.00 0.00 91 1018.5
20260506081804 46 96 2.0 3.0 0.00 0.00 0.00 91 1018.4
20260506081204 46 96 2.0 3.0 0.00 0.00 0.00 90 1018.4
20260506080604 46 122 2.0 3.0 0.00 0.00 0.00 90 1018.4
20260506073007 46 197 1.0 2.0 0.00 0.00 0.00 89 1018.2
20260506072404 46 198 0.0 2.0 0.00 0.00 0.00 89 1018.1
20260506071804 46 198 0.0 1.0 0.00 0.00 0.00 89 1018.1
20260506071204 46 198 0.0 1.0 0.00 0.00 0.00 89 1017.9
20260506070606 46 0 0.0 0.0 0.00 0.00 0.00 88 1017.8
20260506062406 48 198 0.0 1.0 0.00 0.00 0.00 88 1017.4
20260506061805 48 0 0.0 0.0 0.00 0.00 0.00 87 1017.3
20260506061204 48 0 0.0 0.0 0.00 0.00 0.00 87 1017.3
20260506060604 48 0 0.0 0.0 0.00 0.00 0.00 87 1017.3
20260506051206 50 112 2.0 3.0 0.00 0.00 0.00 87 1017.0
20260506044805 50 113 0.0 1.0 0.00 0.00 0.00 83 1016.8
20260506044205 51 113 1.0 2.0 0.00 0.00 0.00 83 1016.7
20260506043008 51 113 0.0 2.0 0.00 0.00 0.00 82 1016.6
20260506041804 52 113 0.0 1.0 0.00 0.00 0.00 82 1016.3
20260506041204 52 112 0.0 1.0 0.00 0.00 0.00 81 1016.1
20260506040604 53 113 0.0 1.0 0.00 0.00 0.00 81 1016.1
20260506035404 54 113 0.0 1.0 0.00 0.00 0.00 79 1015.9
20260506034806 54 112 0.0 1.0 0.00 0.00 0.00 79 1015.9
20260506034204 54 112 0.0 1.0 0.00 0.00 0.00 79 1015.8
20260506033606 54 0 0.0 0.0 0.00 0.00 0.00 77 1015.6
20260506033009 55 112 0.0 1.0 0.00 0.00 0.00 77 1015.5
20260506031805 56 113 1.0 2.0 0.00 0.00 0.00 76 1015.3
20260506031204 56 113 1.0 3.0 0.00 0.00 0.00 75 1015.2
20260506030605 57 131 1.0 3.0 0.00 0.00 0.00 75 1015.1
20260506030008 57 264 0.0 2.0 0.00 0.00 0.00 74 1015.0
20260506025404 58 264 0.0 1.0 0.00 0.00 0.00 74 1014.9
20260506024804 58 261 1.0 2.0 0.00 0.00 0.00 74 1014.9
20260506024204 58 260 1.0 2.0 0.00 0.00 0.00 74 1014.9
20260506023604 58 263 2.0 6.0 0.00 0.00 0.00 74 1014.8
20260506023008 58 264 5.0 10.0 0.00 0.00 0.00 74 1014.8
20260506022404 58 260 6.0 12.0 0.00 0.00 0.00 73 1014.7
20260506020008 59 269 7.0 12.0 0.00 0.00 0.00 72 1014.4
20260506015404 60 265 6.0 10.0 0.00 0.00 0.00 71 1014.4
20260506014804 60 260 7.0 11.0 0.00 0.00 0.00 72 1014.4
20260506013605 60 264 7.0 12.0 0.00 0.00 0.00 71 1014.4
20260506013008 60 265 7.0 12.0 0.00 0.00 0.00 71 1014.3
20260506012404 59 254 7.0 12.0 0.00 0.00 0.00 71 1014.3
20260506011804 60 252 7.0 12.0 0.00 0.00 0.00 71 1014.3
20260506010604 60 261 9.0 17.0 0.00 0.00 0.00 70 1014.4
20260506010008 60 257 7.0 13.0 0.00 0.00 0.00 70 1014.3
20260506004805 60 252 8.0 13.0 0.00 0.00 0.00 69 1014.4
20260506003605 61 263 9.0 15.0 0.00 0.00 0.00 68 1014.3
20260506003008 61 258 10.0 15.0 0.00 0.00 0.00 67 1014.3
20260506002404 62 258 11.0 16.0 0.00 0.00 0.00 67 1014.3
20260506001805 62 261 10.0 16.0 0.00 0.00 0.00 67 1014.3
20260506000008 63 263 10.0 15.0 0.00 0.00 0.00 65 1014.2
20260505235404 64 255 10.0 15.0 0.00 0.00 0.00 65 1014.2
20260505234205 64 254 10.0 16.0 0.00 0.00 0.00 62 1014.3
20260505233604 65 257 9.0 15.0 0.00 0.00 0.00 63 1014.3
20260505232404 64 253 10.0 15.0 0.00 0.00 0.00 63 1014.3
20260505231804 64 251 10.0 16.0 0.00 0.00 0.00 62 1014.3
20260505231204 64 253 10.0 16.0 0.00 0.00 0.00 62 1014.3
20260505230605 65 256 9.0 15.0 0.00 0.00 0.00 61 1014.3
20260505230008 65 263 9.0 15.0 0.00 0.00 0.00 61 1014.3
20260505225404 65 272 8.0 12.0 0.00 0.00 0.00 60 1014.3
20260505224804 66 253 8.0 13.0 0.00 0.00 0.00 60 1014.4
20260505224204 66 241 7.0 13.0 0.00 0.00 0.00 60 1014.5
20260505223605 65 249 7.0 15.0 0.00 0.00 0.00 61 1014.5
20260505223009 65 263 8.0 15.0 0.00 0.00 0.00 60 1014.5
20260505222404 65 258 8.0 13.0 0.00 0.00 0.00 59 1014.6
20260505221804 64 262 7.0 13.0 0.00 0.00 0.00 60 1014.7
20260505220604 64 278 7.0 11.0 0.00 0.00 0.00 59 1014.8
20260505220008 64 283 6.0 11.0 0.00 0.00 0.00 59 1014.9
20260505215404 64 277 7.0 11.0 0.00 0.00 0.00 60 1014.9
20260505214804 64 269 8.0 12.0 0.00 0.00 0.00 60 1014.9
20260505214204 64 268 8.0 12.0 0.00 0.00 0.00 60 1015.0
20260505213604 64 264 6.0 12.0 0.00 0.00 0.00 59 1015.1
20260505213007 64 267 6.0 11.0 0.00 0.00 0.00 59 1015.1
20260505211804 64 258 7.0 12.0 0.00 0.00 0.00 60 1015.2
20260505211204 64 262 8.0 13.0 0.00 0.00 0.00 60 1015.3
20260505210604 64 262 9.0 14.0 0.00 0.00 0.00 60 1015.3
20260505210009 63 274 9.0 14.0 0.00 0.00 0.00 61 1015.3
20260505205404 64 270 8.0 13.0 0.00 0.00 0.00 61 1015.2
20260505204804 64 270 9.0 12.0 0.00 0.00 0.00 61 1015.2
20260505204206 64 270 7.0 12.0 0.00 0.00 0.00 60 1015.2
20260505203604 64 255 6.0 11.0 0.00 0.00 0.00 62 1015.2
20260505203009 64 255 7.0 12.0 0.00 0.00 0.00 64 1015.2
20260505202404 64 272 7.0 14.0 0.00 0.00 0.00 63 1015.2
20260505201804 64 271 7.0 12.0 0.00 0.00 0.00 64 1015.3
20260505201204 63 253 8.0 13.0 0.00 0.00 0.00 64 1015.2
20260505200604 62 247 5.0 13.0 0.00 0.00 0.00 64 1015.3
20260505200008 62 258 6.0 11.0 0.00 0.00 0.00 62 1015.2
20260505194804 62 256 7.0 11.0 0.00 0.00 0.00 63 1015.3
20260505194204 61 262 6.0 11.0 0.00 0.00 0.00 63 1015.3
20260505193604 61 281 7.0 13.0 0.00 0.00 0.00 63 1015.4
20260505193009 62 269 5.0 11.0 0.00 0.00 0.00 62 1015.3
20260505192404 63 277 3.0 9.0 0.00 0.00 0.00 60 1015.3
20260505191805 63 12 2.0 5.0 0.00 0.00 0.00 58 1015.2
20260505190604 64 76 3.0 8.0 0.00 0.00 0.00 59 1015.2
20260505190008 64 31 3.0 8.0 0.00 0.00 0.00 57 1015.3
20260505185404 64 29 2.0 9.0 0.00 0.00 0.00 58 1015.2
20260505184804 64 34 2.0 4.0 0.00 0.00 0.00 60 1015.2
20260505184204 63 166 2.0 5.0 0.00 0.00 0.00 60 1015.3
20260505183604 63 324 2.0 5.0 0.00 0.00 0.00 59 1015.1
20260505182405 63 337 3.0 7.0 0.00 0.00 0.00 60 1015.1
20260505181804 63 294 4.0 10.0 0.00 0.00 0.00 59 1015.2
20260505181204 63 315 3.0 10.0 0.00 0.00 0.00 60 1015.2
20260505180604 63 351 4.0 9.0 0.00 0.00 0.00 61 1015.2
20260505180008 62 34 3.0 8.0 0.00 0.00 0.00 62 1015.1
20260505175404 62 37 2.0 8.0 0.00 0.00 0.00 62 1015.2
20260505174804 61 4 3.0 7.0 0.00 0.00 0.00 64 1015.1
20260505173604 60 9 3.0 7.0 0.00 0.00 0.00 63 1015.3
20260505172403 60 28 3.0 8.0 0.00 0.00 0.00 65 1015.4
20260505170604 58 14 3.0 7.0 0.00 0.00 0.00 68 1015.4
20260505170008 58 351 3.0 7.0 0.00 0.00 0.00 69 1015.4
20260505165404 58 327 2.0 4.0 0.00 0.00 0.00 69 1015.3
20260505164805 57 9 1.0 4.0 0.00 0.00 0.00 72 1015.3
20260505164204 56 331 1.0 5.0 0.00 0.00 0.00 73 1015.4
20260505163604 56 2 2.0 8.0 0.00 0.00 0.00 72 1015.5
20260505163009 56 346 3.0 8.0 0.00 0.00 0.00 74 1015.5
20260505162404 55 311 3.0 7.0 0.00 0.00 0.00 75 1015.4
20260505161804 55 339 3.0 6.0 0.00 0.00 0.00 75 1015.4
20260505161203 55 333 3.0 7.0 0.00 0.00 0.00 75 1015.5
20260505160605 55 333 2.0 7.0 0.00 0.00 0.00 77 1015.4